Time,TemperatureF,DewpointF,PressureIn,WindDirection,WindDirectionDegrees,WindSpeedMPH,WindSpeedGustMPH,Humidity,HourlyPrecipIn,Conditions,Clouds,dailyrainin,SoftwareType,DateUTC
2013-09-11 00:23:00,62.0,-99.9,-100.00,WNW,293,0.0,3.0,-999,0.00,,,0.05,,2013-09-11 05:23:00,
2013-09-11 00:53:00,62.0,-99.9,-100.00,WNW,293,1.0,3.0,-999,0.00,,,0.05,,2013-09-11 05:53:00,
2013-09-11 01:22:00,62.0,-99.9,-100.00,WNW,293,0.0,2.0,-999,0.00,,,0.05,,2013-09-11 06:22:00,
2013-09-11 01:42:00,61.0,-99.9,-100.00,WNW,293,0.0,2.0,-999,0.00,,,0.05,,2013-09-11 06:42:00,
2013-09-11 01:52:00,61.0,-99.9,-100.00,WNW,293,0.0,3.0,-999,0.00,,,0.05,,2013-09-11 06:52:00,
2013-09-11 02:24:00,61.0,-99.9,-100.00,WNW,293,0.0,2.0,-999,0.00,,,0.05,,2013-09-11 07:24:00,
2013-09-11 02:53:00,56.0,-99.9,-100.00,WNW,293,1.0,2.0,-999,0.00,,,0.05,,2013-09-11 07:53:00,
2013-09-11 03:22:00,57.0,-99.9,-100.00,WNW,293,0.0,5.0,-999,0.00,,,0.05,,2013-09-11 08:22:00,
2013-09-11 03:52:00,57.0,-99.9,-100.00,WNW,293,0.0,1.0,-999,0.00,,,0.05,,2013-09-11 08:52:00,
2013-09-11 04:22:00,56.0,-99.9,-100.00,WNW,293,1.0,2.0,-999,0.00,,,0.05,,2013-09-11 09:22:00,
2013-09-11 04:53:00,56.0,-99.9,-100.00,WNW,293,0.0,2.0,-999,0.00,,,0.05,,2013-09-11 09:53:00,
2013-09-11 05:23:00,56.0,-99.9,-100.00,WNW,293,0.0,1.0,-999,0.00,,,0.05,,2013-09-11 10:23:00,
2013-09-11 05:53:00,56.0,-99.9,-100.00,WNW,293,0.0,1.0,-999,0.00,,,0.05,,2013-09-11 10:53:00,
2013-09-11 06:22:00,56.0,-99.9,-100.00,WNW,293,0.0,1.0,-999,0.00,,,0.05,,2013-09-11 11:22:00,
2013-09-11 06:52:00,56.0,-99.9,-100.00,WNW,293,0.0,1.0,-999,0.00,,,0.05,,2013-09-11 11:52:00,
2013-09-11 07:22:00,56.0,-99.9,-100.00,WNW,293,0.0,2.0,-999,0.00,,,0.05,,2013-09-11 12:22:00,
2013-09-11 07:52:00,55.0,-99.9,-100.00,WNW,293,0.0,1.0,-999,0.00,,,0.05,,2013-09-11 12:52:00,
2013-09-11 08:22:00,55.0,-99.9,-100.00,WNW,293,1.0,2.0,-999,0.00,,,0.05,,2013-09-11 13:22:00,
2013-09-11 08:53:00,61.0,-99.9,-100.00,WNW,293,1.0,5.0,-999,0.00,,,0.05,,2013-09-11 13:53:00,
2013-09-11 09:22:00,63.0,-99.9,-100.00,West,270,1.0,6.0,-999,0.00,,,0.05,,2013-09-11 14:22:00,
2013-09-11 09:52:00,64.0,-99.9,-100.00,West,270,1.0,3.0,-999,0.00,,,0.05,,2013-09-11 14:52:00,
2013-09-11 10:22:00,66.0,-99.9,-100.00,WNW,293,2.0,8.0,-999,0.00,,,0.05,,2013-09-11 15:22:00,
2013-09-11 10:54:00,67.0,-99.9,-100.00,WNW,293,1.0,8.0,-999,0.00,,,0.05,,2013-09-11 15:54:00,
2013-09-11 11:13:00,67.0,-99.9,-100.00,West,270,3.0,12.0,-999,0.00,,,0.05,,2013-09-11 16:13:00,
2013-09-11 11:23:00,68.0,-99.9,-100.00,SSW,203,6.0,10.0,-999,0.00,,,0.05,,2013-09-11 16:23:00,
2013-09-11 11:53:00,70.0,-99.9,-100.00,SW,225,6.0,12.0,-999,0.00,,,0.05,,2013-09-11 16:53:00,
2013-09-11 12:24:00,73.0,-99.9,-100.00,SW,225,3.0,12.0,-999,0.00,,,0.05,,2013-09-11 17:24:00,
2013-09-11 12:52:00,74.0,-99.9,-100.00,NW,315,3.0,14.0,-999,0.00,,,0.05,,2013-09-11 17:52:00,
2013-09-11 13:22:00,75.0,-99.9,-100.00,WNW,293,3.0,12.0,-999,0.00,,,0.05,,2013-09-11 18:22:00,
2013-09-11 13:52:00,75.0,-99.9,-100.00,WSW,248,7.0,15.0,-999,0.00,,,0.05,,2013-09-11 18:52:00,
2013-09-11 14:12:00,70.0,-99.9,-100.00,SW,225,6.0,12.0,-999,0.00,,,0.05,,2013-09-11 19:12:00,
2013-09-11 14:22:00,72.0,-99.9,-100.00,NW,315,3.0,9.0,-999,0.00,,,0.05,,2013-09-11 19:22:00,
2013-09-11 14:53:00,76.0,-99.9,-100.00,WSW,248,5.0,12.0,-999,0.00,,,0.05,,2013-09-11 19:53:00,
2013-09-11 15:12:00,74.0,-99.9,-100.00,NW,315,2.0,10.0,-999,0.00,,,0.05,,2013-09-11 20:12:00,
2013-09-11 15:22:00,74.0,-99.9,-100.00,West,270,1.0,7.0,-999,0.00,,,0.03,,2013-09-11 20:22:00,
2013-09-11 15:52:00,76.0,-99.9,-100.00,NW,315,3.0,12.0,-999,0.00,,,0.02,,2013-09-11 20:52:00,
2013-09-11 16:22:00,75.0,-99.9,-100.00,NW,315,2.0,12.0,-999,0.00,,,0.00,,2013-09-11 21:22:00,
2013-09-11 18:22:00,65.0,-99.9,-100.00,NNW,338,1.0,7.0,-999,0.00,,,0.00,,2013-09-11 23:22:00,
2013-09-11 18:53:00,64.0,-99.9,-100.00,North,0,2.0,12.0,-999,0.00,,,0.00,,2013-09-11 23:53:00,
2013-09-11 19:42:00,61.0,-99.9,-100.00,NNW,338,0.0,1.0,-999,0.00,,,0.00,,2013-09-12 00:42:00,
2013-09-11 19:52:00,62.0,-99.9,-100.00,NNW,338,0.0,0.0,-999,0.00,,,0.00,,2013-09-12 00:52:00,
2013-09-11 20:23:00,62.0,-99.9,-100.00,NNW,338,0.0,0.0,-999,0.00,,,0.00,,2013-09-12 01:23:00,
2013-09-11 20:42:00,62.0,-99.9,-100.00,NNW,338,0.0,0.0,-999,0.00,,,0.00,,2013-09-12 01:42:00,
2013-09-11 20:52:00,62.0,-99.9,-100.00,NNW,338,0.0,0.0,-999,0.00,,,0.00,,2013-09-12 01:52:00,
2013-09-11 21:22:00,62.0,-99.9,-100.00,NNW,338,0.0,0.0,-999,0.00,,,0.00,,2013-09-12 02:22:00,